Location: Poughquag
(41.6090°N, 73.6820°W)
Time: 16:37:21
(UTC-05:00)

ISS - Pass Details

Date: 24 January 2020
Orbit: 415 x 423 km, 51.6° (Epoch: 25 February)

Event Time Altitude Azimuth Distance (km) Brightness Sun altitude
Rises 18:31:57 0° 264° (W) 2,374 1.8 -17.2°
Reaches altitude 10° 18:34:15 10° 277° (W) 1,510 0.2 -17.6°
Maximum altitude 18:37:13 27° 337° (NNW) 841 -2.1 -18.1°
Enters shadow 18:38:09 24° 7° (N) 931 -2.2 -18.3°
